Location: Unspecified
(0.0000°N, 0.0000°E)
Time: 18:54:31
(UTC+00:00)

SRMSAT - Pass Details

Date: 03 June 2020
Orbit: 848 x 866 km, 20.0° (Epoch: 06 July)

Event Time Altitude Azimuth Distance (km) Brightness Sun altitude
Rises 20:37:32 0° 313° (NW) 3,387 ? -36.3°
Reaches altitude 10° 20:40:47 10° 330° (NNW) 2,454 ? -37.0°
Enters shadow 20:43:17 18° 353° (N) 1,967 ? -37.5°
